shoulder
new_line
new_line
first
second
third
Al di la della Luna; Beyond the Moon; Astrophotography; Astrofotografia; Danilo Pivato
 
 
         
         
2023

Orbital Elements

Epoch 2023 February 25.0 TT = JDT 2460000.5
T 2023  January 12.78408 TT                                                                Rudenko
q   1.1122378               (2000.0)                                    P               Q
z  - 0.0002969           Peri.   145.81568          -0.60063860     -0.07340616
n +/-0.000008          Node    302.55525          -0.33753478    +0.87940598
e   1.0003303            Incl.    109.16805          +0.72477827    -0.47037927                     
       
Orbit Diagram
         
2022.01.30
2022.02.07
         
         
       
         
         
         
         
         
         

 

       
 
Since: 01/01/2004
 
       
 
Since: 01/11/2010